Weather reports worldwide

Advertisment
Palma De Mallorca/Son San Ju, Spain (8306): temperature & dewpoint: 18.01.2019 00:00:00 - 24.01.2019 00:00:00 (CET)Palma De Mallorca/Son San Ju, Spain (8306): wind speed: 18.01.2019 00:00:00 - 24.01.2019 00:00:00 (CET)Palma De Mallorca/Son San Ju, Spain (8306): wind direction: 18.01.2019 00:00:00 - 24.01.2019 00:00:00 (CET)Palma De Mallorca/Son San Ju, Spain (8306): reduced air pressure: 18.01.2019 00:00:00 - 24.01.2019 00:00:00 (CET)Palma De Mallorca/Son San Ju, Spain (8306): visibility: 18.01.2019 00:00:00 - 24.01.2019 00:00:00 (CET)
Date & Time tt [°C] td [°C] ff [km/h] ff [kn] dd ppp [hPa] vv [km]
24.01.2019 00:00:00 10,1 3,0 18 10 NNW 998,4 10
23.01.2019 23:00:00 11,9 3,6 21 11 N 997,7 10
23.01.2019 22:00:00 12,5 3,1 26 14 NNW 997,6 10
23.01.2019 21:00:00 13,1 3,5 34 18 NNW 997,6 10
23.01.2019 20:00:00 13,5 3,8 42 23 NNW 997,0 10
23.01.2019 19:00:00 13,9 4,2 28 15 NW 996,6 18
23.01.2019 18:00:00 14,1 5,0 44 24 NNW 996,3 10
23.01.2019 17:00:00 14,1 4,4 34 18 NW 996,4 10
23.01.2019 16:00:00 14,2 6,5 31 17 NW 996,4 10
23.01.2019 15:00:00 15,0 6,1 42 23 NW 995,9 10
23.01.2019 14:00:00 14,1 6,6 37 20 WNW 996,5 10
23.01.2019 13:00:00 13,0 7,0 21 11 W 997,7 10
23.01.2019 12:00:00 11,0 7,5 8 4 W 999,5 10
23.01.2019 11:00:00 10,0 6,7 21 11 WNW 1000,6 10
23.01.2019 10:00:00 11,3 5,0 13 7 WSW 1000,0 28
23.01.2019 09:00:00 10,0 5,2 11 6 SW 1001,0 10
23.01.2019 08:00:00 9,5 4,9 11 6 WSW 1002,3 10
23.01.2019 07:00:00 9,6 3,8 15 8 SSW 1003,0 10
23.01.2019 06:00:00 9,9 3,6 24 13 NNW 1003,3 10
23.01.2019 05:00:00 9,7 3,9 11 6 NW 1004,3 10
23.01.2019 04:00:00 9,4 3,6 21 11 WNW 1004,4 10
23.01.2019 03:00:00 9,5 4,1 18 10 NW 1004,8 10
23.01.2019 02:00:00 9,2 4,2 13 7 WNW 1005,0 10
23.01.2019 01:00:00 7,6 5,1 9 5 N 1006,0 15
23.01.2019 00:00:00 8,7 4,9 16 9 W 1006,6 10
22.01.2019 23:00:00 8,6 4,3 4 2 - 1007,1 10
22.01.2019 22:00:00 9,7 2,8 11 6 W 1007,7 10
22.01.2019 21:00:00 9,2 2,4 9 5 W 1008,2 10
22.01.2019 20:00:00 9,2 2,3 9 5 W 1008,6 10
22.01.2019 19:00:00 8,8 2,1 9 5 W 1008,9 10
22.01.2019 18:00:00 8,9 1,8 15 8 WNW 1009,2 10
22.01.2019 17:00:00 9,6 2,7 13 7 NNW 1009,4 10
22.01.2019 16:00:00 10,8 1,3 16 9 WNW 1009,9 10
22.01.2019 15:00:00 11,4 1,1 18 10 W 1010,4 10
22.01.2019 14:00:00 11,3 2,0 16 9 NW 1011,5 10
22.01.2019 13:00:00 11,9 2,4 16 9 NW 1012,8 10
22.01.2019 12:00:00 10,4 2,0 16 9 NW 1013,9 10
22.01.2019 11:00:00 10,4 5,8 11 6 WSW 1014,6 10
22.01.2019 10:00:00 5,5 4,6 2 1 E 1014,8 10
22.01.2019 09:00:00 1,9 1,6 4 2 NE 1014,9 10
22.01.2019 08:00:00 0,8 0,5 2 1 - 1015,1 10
22.01.2019 07:00:00 0,8 0,5 4 2 - 1015,2 10
22.01.2019 06:00:00 2,1 1,8 4 2 N 1015,5 10
22.01.2019 05:00:00 2,9 2,5 0 0 N 1015,9 10
22.01.2019 04:00:00 3,6 3,0 4 2 ENE 1016,7 10
22.01.2019 03:00:00 4,3 3,6 8 4 W 1017,2 10
22.01.2019 02:00:00 5,3 3,9 5 3 E 1017,7 10
22.01.2019 01:00:00 6,2 4,2 5 3 NNE 1018,6 10
22.01.2019 00:00:00 3,4 2,1 9 5 NE 1018,3 10
21.01.2019 23:00:00 5,1 3,8 11 6 ENE 1017,9 10
21.01.2019 22:00:00 3,8 2,9 13 7 ENE 1018,3 10
21.01.2019 21:00:00 4,1 3,1 5 3 NE 1017,9 10
21.01.2019 20:00:00 5,4 3,7 2 1 NE 1017,6 10
21.01.2019 19:00:00 6,5 4,3 5 3 NE 1017,4 10
21.01.2019 18:00:00 8,5 4,1 15 8 NE 1017,1 10
21.01.2019 17:00:00 11,6 3,3 13 7 NNE 1016,9 10
21.01.2019 16:00:00 11,5 3,9 21 11 NE 1016,7 10
21.01.2019 15:00:00 12,1 3,5 34 18 NNE 1016,1 10
21.01.2019 14:00:00 13,4 3,3 24 13 NNE 1016,1 10
21.01.2019 13:00:00 12,4 5,2 15 8 N 1016,5 20
21.01.2019 12:00:00 12,6 5,0 21 11 NNE 1016,8 10
21.01.2019 11:00:00 9,6 5,8 21 11 NE 1016,9 10
21.01.2019 10:00:00 10,1 7,2 2 1 NE 1015,6 10
21.01.2019 09:00:00 6,4 5,7 5 3 E 1015,1 10
21.01.2019 08:00:00 6,9 6,2 4 2 - 1014,7 10
21.01.2019 07:00:00 7,8 6,9 5 3 NE 1014,3 10
21.01.2019 06:00:00 7,8 6,6 5 3 ENE 1013,3 10
21.01.2019 05:00:00 9,0 6,8 5 3 NNE 1012,9 10
21.01.2019 04:00:00 8,7 7,0 11 6 NNE 1012,7 10
21.01.2019 03:00:00 9,6 6,9 18 10 NNE 1012,2 10
21.01.2019 02:00:00 9,6 6,5 16 9 NNE 1011,7 10
21.01.2019 01:00:00 9,9 6,4 21 11 NNE 1011,1 10
21.01.2019 00:00:00 10,3 5,7 16 9 NE 1010,6 10
20.01.2019 23:00:00 10,3 6,0 21 11 NE 1010,1 10
20.01.2019 22:00:00 10,0 5,6 15 8 NE 1009,5 10
20.01.2019 21:00:00 9,8 7,0 21 11 NE 1009,2 10
20.01.2019 20:00:00 10,6 8,4 15 8 NE 1008,4 10
20.01.2019 19:00:00 10,9 8,2 5 3 NW 1007,1 20
20.01.2019 18:00:00 11,3 7,8 13 7 WNW 1006,6 10
20.01.2019 17:00:00 12,4 7,9 11 6 NW 1006,6 10
20.01.2019 16:00:00 13,2 8,1 18 10 WNW 1006,6 30
20.01.2019 15:00:00 14,2 8,7 18 10 NNW 1006,4 10
20.01.2019 14:00:00 13,1 7,9 8 4 NW 1006,8 10
20.01.2019 13:00:00 11,9 10,8 4 2 - 1007,6 10
20.01.2019 12:00:00 10,9 10,4 8 4 NNW 1008,3 6
20.01.2019 11:00:00 10,5 10,0 2 1 ENE 1008,2 9
20.01.2019 10:00:00 9,4 9,1 4 2 - 1008,0 10
20.01.2019 09:00:00 8,9 8,6 9 5 NE 1008,1 8
20.01.2019 08:00:00 8,9 8,6 8 4 NE 1008,0 8
20.01.2019 07:00:00 8,6 8,3 9 5 ENE 1008,3 12
20.01.2019 06:00:00 8,2 7,8 8 4 NNE 1008,8 10
20.01.2019 05:00:00 7,8 7,2 8 4 NE 1009,4 10
20.01.2019 04:00:00 6,3 5,7 8 4 ENE 1010,4 10
20.01.2019 03:00:00 5,1 4,6 2 1 NNE 1011,4 10
20.01.2019 02:00:00 4,4 4,0 5 3 NE 1012,0 10
20.01.2019 01:00:00 3,5 3,1 4 2 - 1012,8 10
20.01.2019 00:00:00 2,8 2,2 5 3 ENE 1013,3 10
19.01.2019 23:00:00 3,0 2,3 4 2 - 1013,7 10
19.01.2019 22:00:00 3,5 2,5 5 3 NE 1013,9 10
19.01.2019 21:00:00 4,6 2,9 2 1 NE 1014,2 10
19.01.2019 20:00:00 6,6 3,9 4 2 - 1014,3 10
19.01.2019 19:00:00 8,3 4,3 9 5 NW 1014,3 10
19.01.2019 18:00:00 9,6 4,4 8 4 NNW 1014,2 10
19.01.2019 17:00:00 11,8 4,3 15 8 NW 1014,1 10
19.01.2019 16:00:00 12,5 4,2 15 8 NNW 1014,1 10
19.01.2019 15:00:00 12,9 4,8 11 6 NNW 1014,2 10
19.01.2019 14:00:00 13,4 4,1 13 7 WNW 1014,7 10
19.01.2019 13:00:00 13,0 3,9 11 6 NW 1015,5 10
19.01.2019 12:00:00 13,5 5,9 2 1 NNW 1016,2 10
19.01.2019 11:00:00 10,8 6,9 4 2 - 1016,5 10
19.01.2019 10:00:00 7,1 6,7 0 0 N 1016,0 25
19.01.2019 09:00:00 5,3 5,0 0 0 N 1015,6 10
19.01.2019 08:00:00 5,2 4,9 4 2 - 1015,3 10
19.01.2019 07:00:00 5,1 5,0 4 2 ESE 1015,2 10
19.01.2019 06:00:00 4,0 3,9 4 2 - 1015,3 10
19.01.2019 05:00:00 3,6 3,5 2 1 - 1015,6 10
19.01.2019 04:00:00 4,3 4,2 5 3 SE 1015,9 10
19.01.2019 03:00:00 3,3 3,2 4 2 - 1016,4 10
19.01.2019 02:00:00 3,4 3,1 8 4 ENE 1016,5 10
19.01.2019 01:00:00 4,6 4,3 0 0 N 1017,2 10
19.01.2019 00:00:00 5,0 4,7 4 2 - 1017,7 10
18.01.2019 23:00:00 5,3 4,9 4 2 N 1017,7 10
18.01.2019 22:00:00 6,0 5,6 4 2 ENE 1017,4 18
18.01.2019 21:00:00 6,8 6,4 5 3 NNW 1017,4 10
18.01.2019 20:00:00 7,8 7,2 5 3 NNE 1017,4 10
18.01.2019 19:00:00 8,4 7,6 8 4 NE 1017,4 10
18.01.2019 18:00:00 9,2 8,1 2 1 - 1017,6 10
18.01.2019 17:00:00 9,9 7,5 8 4 N 1017,6 10
18.01.2019 16:00:00 11,1 6,8 11 6 NE 1017,4 10
18.01.2019 15:00:00 11,4 6,3 11 6 NE 1017,5 10
18.01.2019 14:00:00 11,7 6,8 9 5 NE 1017,5 10
18.01.2019 13:00:00 12,1 6,5 11 6 NE 1018,1 10
18.01.2019 12:00:00 12,2 6,5 9 5 ENE 1018,8 10
18.01.2019 11:00:00 10,8 6,8 15 8 ENE 1018,9 10
18.01.2019 10:00:00 10,3 6,6 16 9 NE 1018,7 10
18.01.2019 09:00:00 10,0 6,7 15 8 NE 1018,4 10
18.01.2019 08:00:00 10,0 6,9 18 10 NE 1018,0 10
18.01.2019 07:00:00 10,2 6,9 15 8 NE 1017,5 10
18.01.2019 06:00:00 10,4 7,1 11 6 NE 1017,3 10
18.01.2019 05:00:00 10,3 7,6 11 6 ENE 1017,3 10
18.01.2019 04:00:00 9,7 7,8 8 4 ENE 1017,2 12
18.01.2019 03:00:00 9,1 8,0 5 3 ENE 1017,3 10
18.01.2019 02:00:00 9,1 7,9 8 4 NE 1017,3 10
18.01.2019 01:00:00 9,5 7,6 13 7 NE 1017,6 10
18.01.2019 00:00:00 10,0 8,8 16 9 NE 1017,8 10

tt = temperature
td = dewpoint
ff = wind speed
dd = wind direction
ppp = reduced air pressure
vv = visibility

Next stations